Du Bois, PA

11:27 AM EST on December 12, 2019 (GMT -0500)
Du Bois-Jefferson County

Weather History for KDUJ - October, 2019

Change the Weather History Date:

Wednesday, October 16, 2019

  Actual Average Record
Temperature  
Mean Temperature 48 °F 49 °F  
Max Temperature 53 °F 59 °F 79 °F (1962)
Min Temperature 42 °F 39 °F 29 °F (1970)
Degree Days  
Heating Degree Days 18 16  
Month to date heating degree days 185 221  
Since 1 July heating degree days 288 467  
Cooling Degree Days 0 0  
Month to date cooling degree days 23 0  
Year to date cooling degree days 430 360  
Moisture  
Dew Point 42 °F    
Average Humidity 82    
Maximum Humidity 93    
Minimum Humidity 59    
Precipitation  
Precipitation 0.56 in 0.09 in 0.48 in (2013)
Month to date precipitation 2.42 1.64  
Year to date precipitation 38.82 34.88  
Sea Level Pressure  
Sea Level Pressure 29.65 in    
Wind  
Wind Speed 9 mph ()    
Max Wind Speed 22 mph    
Max Gust Speed 31 mph    
Visibility 7.6 miles    
Events Rain , Thunderstorm    
T = Trace of Precipitation, MM = Missing Value Source: Averaged Metar Reports

Daily Weather History Graph

Daily Weather History Graph

Search for Another Location

Airport or City:

Astronomy

Oct. 16, 2019 Rise Set
Actual Time 7:28 AM EDT 6:33 PM EDT
Civil Twilight 7:00 AM EDT 7:01 PM EDT
Nautical Twilight 6:28 AM EDT 7:33 PM EDT
Astronomical Twilight 5:56 AM EDT 8:05 PM EDT
Moon 8:24 PM EDT (10/16) 9:57 AM EDT (10/16)
Length of Visible Light 12h 01m
Length of Day
11h 05m
Waning Gibbous, 93% of the Moon is Illuminated
Oct 16
Waning Gibbous
Oct 21
Last Quarter
Oct 27
New
Nov 4
First Quarter
Nov 12
Full

Hourly Weather History & Observations

Time (EDT) Temp. Windchill Dew Point Humidity Pressure Visibility Wind Dir Wind Speed Gust Speed Precip Events Conditions
12:53 AM 53.1 °F - 39.0 °F 59% 29.86 in 10.0 mi SE 10.4 mph - N/A   Partly Cloudy
1:53 AM 52.0 °F - 39.0 °F 61% 29.84 in 10.0 mi SE 6.9 mph - N/A   Mostly Cloudy
2:53 AM 52.0 °F - 39.0 °F 61% 29.80 in 10.0 mi SE 9.2 mph - N/A   Clear
4:53 AM 52.0 °F - 39.9 °F 63% 29.75 in 10.0 mi SE 10.4 mph - N/A   Mostly Cloudy
5:53 AM 52.0 °F - 39.9 °F 63% 29.72 in 10.0 mi SE 9.2 mph - N/A   Overcast
6:53 AM 53.1 °F - 41.0 °F 64% 29.70 in 10.0 mi SE 10.4 mph - N/A   Overcast
7:53 AM 53.1 °F - 41.0 °F 64% 29.67 in 10.0 mi SE 11.5 mph - N/A   Overcast
8:13 AM 53.1 °F - 41.0 °F 64% 29.66 in 10.0 mi SE 10.4 mph - N/A Thunderstorm Overcast
8:45 AM 51.1 °F - 44.1 °F 77% 29.69 in 3.0 mi South 6.9 mph - 0.03 in Rain , Thunderstorm Light Thunderstorms and Rain
8:53 AM 50.0 °F - 44.1 °F 80% 29.68 in 4.0 mi SSE 6.9 mph - 0.04 in Rain , Thunderstorm Light Thunderstorms and Rain
9:05 AM 50.0 °F - 45.0 °F 83% 29.67 in 10.0 mi SSE 5.8 mph - 0.00 in Rain Light Rain
9:53 AM 48.9 °F - 46.0 °F 90% 29.65 in 5.0 mi SSE 11.5 mph 21.9 mph 0.03 in Rain Light Rain
10:04 AM 48.9 °F - 46.0 °F 90% 29.64 in 5.0 mi SSE 11.5 mph 18.4 mph 0.02 in Rain Light Rain
10:53 AM 50.0 °F - 46.9 °F 89% 29.63 in 7.0 mi SSE 6.9 mph - 0.09 in Rain Light Rain
11:53 AM 50.0 °F - 48.0 °F 93% 29.64 in 5.0 mi Variable 5.8 mph - 0.04 in Rain Light Rain
12:11 PM 50.0 °F - 48.0 °F 93% 29.64 in 2.5 mi SSW 5.8 mph - 0.04 in Rain Light Rain
12:27 PM 48.9 °F - 46.0 °F 90% 29.65 in 1.2 mi WNW 10.4 mph - 0.15 in Rain Rain
12:44 PM 46.9 °F - 44.1 °F 90% 29.65 in 3.0 mi West 5.8 mph - 0.25 in Rain Light Rain
12:53 PM 46.9 °F - 45.0 °F 93% 29.65 in 4.0 mi WNW 5.8 mph - 0.26 in Rain Light Rain
1:53 PM 46.9 °F - 45.0 °F 93% 29.61 in 4.0 mi Calm Calm - 0.06 in Rain Light Rain
2:49 PM 48.2 °F - 44.6 °F 87% 29.59 in 10.0 mi WSW 10.4 mph - 0.01 in   Overcast
2:53 PM 46.9 °F - 44.1 °F 90% 29.60 in 10.0 mi West 17.3 mph - 0.01 in   Overcast
3:42 PM 46.9 °F - 43.0 °F 86% 29.59 in 10.0 mi West 16.1 mph 26.5 mph N/A   Overcast
3:53 PM 46.9 °F - 43.0 °F 86% 29.60 in 10.0 mi West 16.1 mph 23.0 mph N/A   Overcast
4:53 PM 45.0 °F 38.5 °F 39.9 °F 82% 29.60 in 10.0 mi West 13.8 mph 24.2 mph N/A   Overcast
5:14 PM 45.0 °F 38.9 °F 39.9 °F 82% 29.59 in 10.0 mi West 12.7 mph 25.3 mph N/A   Overcast
5:53 PM 44.1 °F 37.1 °F 37.9 °F 79% 29.60 in 10.0 mi West 15.0 mph 25.3 mph N/A   Overcast
6:53 PM 44.1 °F 36.5 °F 37.9 °F 79% 29.60 in 10.0 mi West 17.3 mph 24.2 mph N/A   Mostly Cloudy
7:48 PM 42.8 °F 36.2 °F 39.2 °F 87% 29.60 in 10.0 mi WSW 12.7 mph - N/A   Overcast
7:53 PM 43.0 °F 36.0 °F 39.0 °F 86% 29.60 in 10.0 mi WSW 13.8 mph - N/A   Overcast
8:40 PM 42.1 °F 34.5 °F 39.9 °F 92% 29.59 in 6.0 mi WSW 15.0 mph 23.0 mph 0.01 in   Overcast
8:53 PM 42.1 °F 33.9 °F 39.9 °F 92% 29.60 in 7.0 mi WSW 17.3 mph 23.0 mph 0.01 in Rain Light Rain
9:53 PM 42.1 °F 33.9 °F 39.9 °F 92% 29.58 in 7.0 mi WSW 17.3 mph - 0.01 in   Overcast
10:53 PM 43.0 °F 35.7 °F 41.0 °F 93% 29.57 in 3.0 mi WSW 15.0 mph 25.3 mph 0.00 in Rain Light Rain
11:53 PM 43.0 °F 34.8 °F 39.9 °F 89% 29.56 in 10.0 mi West 18.4 mph 27.6 mph 0.01 in   Overcast